www.pogodaiklimat.ru

Погода и климат >> Архив погоды >> Индия >> Coimbatore


ПОГОДА в Coimbatore

  • Прогноз погоды в Coimbatore
  • Монитор погоды в Coimbatore
  • Климат города

АРХИВ ПОГОДЫ в Coimbatore

Время (UTC), дата Ветер
(напр.,м/с)
 
Видим.   Явления Облачность Т
(С)
Тd
(С)
f
(%)
Тe
(С)
Тes
(С)
Комфортность P
(гПа)
Po
(гПа)
Тmin
(С)
Tmax
(С)
R
(мм)
R24
(мм)
S
(см)
15 11.09 Ю 5 4000 м мгла 6/3 450 м
[Sc Ac trans Ci fib]
+27.4 +22.1 73 +36 +36 очень
душно
1011.5 967.2
18 11.09 Ю 4 4000 м мгла 8/3 450 м
[Sc Ac trans Ci fib]
+24.6 +22.2 87 +32 +32 очень
душно
1012.3 967.5
21 11.09 Ю 3 4000 м мгла 8/3 450 м
[Sc Ac trans Ci fib]
+23.6 +21.2 86 +30 +30 очень
душно
1011.0 966.2
00 12.09 Ю 3 4000 м мгла 8/3 450 м
[Sc Ac trans Ci fib]
+23.2 +21.4 90 +31 +31 очень
душно
1011.3 966.5
03 12.09 Ю 3 4000 м мгла 4/1 450 м
[Sc Ci fib]
+26.0 +21.2 75 +33 +38 очень
душно
1013.4 968.7 +22.5 +35.3
06 12.09 Ю 3 4000 м мгла 4/1 450 м
[Sc Ci fib]
+32.4 +20.8 50 +39 +55 опасность
солнечного
удара
1011.1 967.5
09 12.09 Ю 3 4000 м мгла 3/3 450 м
[Cb cap]
+35.4 +17.5 35 +39 +48 очень
душно
1006.2 963.3
12 12.09 Ю 5 4000 м мгла 3/1 450 м
[Sc Ci fib]
+33.2 +20.0 46 +39 +40 очень
душно
1005.7 962.6 +36.4
15 12.09 Ю 5 4000 м мгла 3/1 450 м
[Sc Ci fib]
+27.0 +22.3 75 +35 +35 очень
душно
1008.9 964.6
18 12.09 Ю 4 4000 м мгла 3/1 450 м
[Sc Ci fib]
+24.2 +22.4 90 +32 +32 очень
душно
1010.2 965.5
21 12.09 Ю 5 4000 м мгла 5/3 450 м
[Sc Ci fib]
+23.4 +22.2 93 +32 +32 очень
душно
1009.2 964.5
00 13.09 Ю 3 4000 м дымка 5/3 450 м
[Sc Ci fib]
+23.0 +21.5 91 +31 +31 очень
душно
1010.2 965.3
03 13.09 Ю 3 4000 м мгла 5/3 450 м
[Sc Ci fib]
+26.0 +20.5 72 +32 +36 очень
душно
1011.3 966.8 +22.4 +36.4
06 13.09 Ю 5 4000 м мгла 4/3 450 м
[Sc Ac trans Ci fib]
+31.4 +20.3 52 +38 +45 очень
душно
1009.6 966.0
09 13.09 Ю 6 4000 м мгла 4/3 450 м
[Sc diur, vesp Ci fib]
+34.0 +18.4 40 +39 +43 очень
душно
1005.8 962.6
12 13.09 Ю 7 4000 м мгла 8/3 450 м
[Sc diur, vesp Ci fib]
+30.6 +19.7 52 +37 +37 очень
душно
1005.8 962.1 +34.0
15 13.09 Ю 5 4000 м мгла 8/3 450 м
[Sc Ci fib]
+26.2 +20.4 70 +32 +32 очень
душно
1009.6 965.2
18 13.09 Ю 4 4000 м мгла 8/3 450 м
[Sc Ac trans Ci fib]
+25.0 +20.1 74 +31 +31 очень
душно
1010.2 965.5
21 13.09 Ю 3 4000 м мгла 8/3 450 м
[Sc Ac trans Ci fib]
+23.8 +22.0 90 +31 +31 очень
душно
1009.3 964.6
00 14.09 Ю 2 4000 м мгла 6/3 450 м
[Sc Ci fib]
+23.2 +21.7 91 +31 +31 очень
душно
1009.9 965.2
03 14.09 Ю 4 4000 м дымка 8/3 450 м
[Sc diur, vesp Ac trans Ci fib]
+24.8 +21.5 82 +32 +33 очень
душно
1011.6 966.8 +22.8 +34.0
06 14.09 Ю 3 4000 м мгла 6/3 450 м
[Sc diur, vesp Ac trans Ci fib]
+32.0 +20.6 51 +39 +49 очень
душно
1009.6 966.0
09 14.09 Ю 2 4000 м мгла 6/3 450 м
[Cu med, cong Ac trans Ci fib]
+34.0 +18.0 39 +38 +47 очень
душно
1006.3 963.1
12 14.09 Ю 3 4000 м мгла 9/1 450 м
[Cu Sc Ac trans Ci fib]
+30.4 +20.5 55 +37 +38 очень
душно
1006.8 963.1 +34.0
15 14.09 Ю 3 4000 м мгла 8/1 450 м
[Sc Ac trans Ci fib]
+26.0 +19.9 69 +32 +32 очень
душно
1009.8 965.3
18 14.09 Ю 2 4000 м мгла 8/1 450 м
[Sc Ac trans Ci fib]
+25.0 +22.6 87 +33 +33 очень
душно
1011.5 966.8
21 14.09 Ю 2 4000 м мгла 8/1 450 м
[Sc Ac trans Ci fib]
+24.4 +21.7 85 +31 +31 очень
душно
1011.0 966.3
00 15.09 В 2 4000 м мгла 8/4 450 м
[Sc Ac trans Ci fib]
+24.0 +21.6 86 +31 +31 очень
душно
1011.7 966.9
03 15.09 Ю 2 4000 м дымка 6/3 360 м
[Sc Ac trans Ci fib]
+25.8 +21.3 76 +33 +36 очень
душно
1012.0 967.4 +23.5 +34.0
06 15.09 Ю 1 4000 м мгла 6/1 450 м
[Sc Ac trans Ci fib]
+32.0 +19.9 49 +38 +54 опасность
солнечного
удара
1010.0 966.4
09 15.09 Ю 2 4000 м мгла 6/3 450 м
[Cu Sc Ac trans Ci fib]
+34.8 +17.1 35 +38 +46 очень
душно
1006.3 963.2
12 15.09 Ю 3 4000 м мгла 6/3 450 м
[Cu Sc Ac trans Ci fib]
+32.0 +20.6 51 +39 +40 очень
душно
1006.0 962.6 +34.8
15 15.09 Ю 3 4000 м мгла 9/3 450 м
[Sc Ac trans Ci fib]
+27.0 +20.0 66 +33 +33 очень
душно
1009.2 964.9
18 15.09 Ю 3 4000 м мгла 8/3 450 м
[Sc Ac trans Ci fib]
+25.0 +22.3 85 +33 +33 очень
душно
1011.0 966.3
21 15.09 Ю 2 4000 м мгла 8/3 450 м
[Sc Ac trans]
+24.8 +22.4 87 +32 +32 очень
душно
1009.8 965.1
00 16.09 Ю 2 4000 м дымка 8/3 450 м
[Sc Ac trans]
+24.4 +22.6 90 +32 +32 очень
душно
1009.9 965.2
03 16.09 Ю 2 4000 м дымка 9/3 450 м
[Sc Ac trans Ci sp]
+25.8 +22.9 84 +34 +37 очень
душно
1010.7 966.2 +23.9 +34.8
06 16.09 Ю 5 4000 м мгла 8/3 450 м
[Sc Ac trans]
+29.8 +21.1 60 +37 +42 очень
душно
1009.5 965.6
09 16.09 Ю 6 4000 м мгла 6/3 450 м
[Cb cap Ac trans Ci fib]
+32.8 +21.3 51 +41 +44 опасность
перегрева
1006.2 962.9
12 16.09 Ю 5 4000 м слабая морось 9/4 360 м
[Cb cap Ac trans Ci fib]
+26.2 +23.3 84 +35 +35 очень
душно
1007.1 962.9 +32.8 0.2
15 16.09 Ю 5 4000 м мгла 8/3 450 м
[Sc Ac trans Ci fib]
+25.4 +22.4 83 +33 +33 очень
душно
1009.6 965.2 0.2
18 16.09 Ю 3 4000 м дымка 6/3 450 м
[Sc Ac trans Ci fib]
+24.8 +23.0 90 +33 +33 очень
душно
1010.4 965.8 0.2
21 16.09 Ю 3 4000 м дымка 8/3 450 м
[Sc Ac trans Ci fib]
+24.2 +22.4 90 +32 +32 очень
душно
1010.2 963.6 0.2
00 17.09 Ю 3 4000 м дымка 5/3 450 м
[Sc Ac trans]
+23.6 +21.8 90 +30 +30 очень
душно
1008.4 963.7 0.2
03 17.09 Ю 2 4000 м дымка 5/3 450 м
[Sc Ac trans Ci fib]
+25.4 +21.8 80 +33 +36 очень
душно
1010.3 965.9 +23.0 +32.8 0.2
06 17.09 Ю 3 4000 м мгла 5/3 450 м
[Sc Ac trans Ci fib]
+30.4 +21.2 58 +38 +49 очень
душно
1009.1 965.4
09 17.09 Ю 4 4000 м мгла 8/4 450 м
[Cb cap Ci fib]
+32.0 +19.9 49 +38 +44 очень
душно
1005.5 962.1
12 17.09 ЮЗ 6 4000 м мгла 8/3 450 м
[Cb cap Ci fib]
+30.0 +20.0 55 +36 +37 очень
душно
1006.3 962.6 +33.4
15 17.09 Ю 5 4000 м мгла 5/3 450 м
[Sc Ci fib]
+26.2 +21.7 76 +34 +34 очень
душно
1009.0 964.7
18 17.09 Ю 4 4000 м мгла 4/3 360 м
[Sc Ci fib]
+24.4 +22.6 90 +32 +32 очень
душно
1009.5 964.9
21 17.09 Ю 3 4000 м мгла 5/3 450 м
[Sc Ci fib]
+23.6 +22.1 91 +30 +30 очень
душно
1008.1 963.4
00 18.09 Ю 3 4000 м дымка 5/3 450 м
[Sc Ci fib]
+23.2 +21.7 91 +31 +31 очень
душно
1008.5 963.8
03 18.09 Ю 4 4000 м мгла 9/3 450 м
[Sc Ac trans Ci fib]
+25.4 +20.8 76 +32 +33 очень
душно
1010.2 965.7 +22.8 +33.4
06 18.09 Ю 4 4000 м мгла 8/3 450 м
[Sc Ac trans Ci fib]
+28.8 +20.7 62 +36 +42 очень
душно
1009.8 965.8
09 18.09 Ю 5 4000 м мгла 6/3 450 м
[Cu Sc Ci fib]
+32.2 +19.8 48 +38 +43 очень
душно
1005.7 962.4
12 18.09 Ю 3 4000 м мгла 6/3 450 м
[Cu Sc Ac trans Ci fib]
+29.6 +18.8 52 +35 +35 очень
душно
1006.3 962.6 +32.6

 

Местоположение метеостанции Coimbatore (Tamil Nadu, Индия): широта 11.03 долгота 77.05 высота над уровнем моря 399 м.

В архиве по умолчанию представлена погода в Coimbatore за последнюю неделю. Архивные данные за месяц целиком и за предыдущие месяцы, начиная с января 2011 года, Вы можете получить, выбрав интересующий диапазон дат из раскрывающегося списка и нажав кнопку "Ввод!".


*Определитесь, кто Вы:
робот инопланетянин человек

Внимание! Время в таблицах - всемирное. Для получения местного времени необходимо прибавить поправку, которая в Coimbatore равна 5.5 ч.

Смотрите также архив погоды в соседних городах и на ближайших метеорологических станциях:

Погода в Coonoor (Tamil Nadu, Индия) (45 км)
Погода в Palakkad (Kerala, Индия) (52 км)
Погода в Udhagamandalam (Tamil Nadu, Индия) (54 км)
Погода в Valparai (Tamil Nadu, Индия) (84 км)
Погода в Kodaikanal (Tamil Nadu, Индия) (100 км)
Погода в Chamarajnagar (Karnataka, Индия) (101 км)
Погода в Thrissur (Kerala, Индия) (107 км)
Погода в Paramathy (Tamil Nadu, Индия) (113 км)
Погода в Periakulam (Tamil Nadu, Индия) (115 км)
Погода в Karipur (Kerala, Индия) (121 км)

Пояснения к столбцам:

Ветер - указаны скорость ветра в м/с - средняя за 10 мин, порывы в срок и между сроками (в фигурных скобках) и направление, откуда дует ветер: С - северный, СВ - северо-восточный, В - восточный, ЮВ - юго-восточный, Ю - южный, ЮЗ - юго-западный, З - западный, СЗ - северо-западный.
Видимость - горизонтальная дальность видимости в метрах или километрах. При видимости от 1 до 10 км при отсутствии осадков обычно наблюдается дымка, при ухудшении видимости до 1 км и менее - туман. В сухую погоду видимость может ухудшаться дымом, пылью или мглою.
Явления - указаны атмосферные явления, наблюдавшиеся в срок или в последний час перед сроком; фигурными скобками обозначены явления, наблюдавшиеся между сроками (за 1-3 часа до срока); квадратными скобками обозначены град или гололедные отложения с указанием их диаметра в мм.
Облачность - указаны через наклонную черту общая и нижняя облачность в баллах и высота нижней границы облаков в метрах; квадратными скобками обозначены формы облаков: Ci - перистые, Cs - перисто-слоистые, Cc - перисто-кучевые, Ac - высококучевые, As - высокослоистые, Sc - слоисто-кучевые, Ns - слоисто-дождевые, Cu - кучевые, Cb - кучево-дождевые. Подробнее классификацию облаков см. в Атласе облаков (PDF).
T - Температура воздуха - температура, измеренная на высоте 2 м над землей.
Td - Температура точки росы - температура, при понижении до которой содержащийся в воздухе водяной пар достигнет насыщения.
f - Относительная влажность воздуха - влажноcть воздуха, измеренная на высоте 2 м над землей.
Te - Эффективная температура - температура, которую ощущает одетый по сезону человек в тени. Характеристика душности погоды. При расчете учитывается влияние влажности воздуха и скорости ветра на теплоощущения человека.
Tes - Эффективная температура на солнце - температура, которую ощущает человек, с поправкой на солнечный нагрев. Характеристика знойности погоды. Зависит от высоты солнца над горизонтом, облачности и скорости ветра. Ночью, в пасмурную погоду, а также при ветре 12 м/с и более поправка равна нулю.
P - Атмосферное давление - приведенное к уровню моря атмосферное давление.
Po - Атмосферное давление - измеренное на уровне метеостанции атмосферное давление.
Tmin - Минимальная температура - минимум температуры воздуха на высоте 2 м над землей.
Tmax - Максимальная температура - максимум температуры воздуха на высоте 2 м над землей.
R - Количество осадков - Количество выпавших осадков за период времени, мм. При наведении курсора мыши на число - период времени, за который выпало указанное количество осадков.
R24 - Количество осадков - Количество выпавших осадков за 24 часа, мм.
S - Снежный покров - Высота снежного покрова, см. При наведении курсора мыши на число - состояние снежного покрова и степень покрытия местности в баллах.